Theta_e
313 314 315 315 314 313 313 314 314 312 312 312 313 314 314 314 313 313 315 313 310 313 315 314 314 314 314 314 311 309 310 310 311 311 311 312 313 314 316 316 316 315 315 314 314 314 314 314 313 314 314 313 314 314 314 314 314 315 316 317 318 317 319 321 323 323 321 320 319 318 317 315 315 316 316 316 316 317 317 318 319 319 319 319 321 322
313 315 315 314 314 313 313 313 312 311 311 310 313 314 313 313 313 312 313 314 311 312 316 314 313 313 312 313 311 308 309 310 311 311 312 313 313 313 314 314 315 314 314 315 314 314 314 314 314 314 314 314 314 314 314 314 314 314 315 316 316 317 319 319 320 320 320 318 317 316 315 314 315 315 315 315 315 316 317 317 318 318 318 318 318 320
314 314 313 312 311 312 312 312 311 312 312 312 313 313 313 313 312 312 314 315 312 312 317 316 313 315 313 312 311 308 309 311 312 313 313 314 313 313 314 314 315 315 315 315 314 315 315 314 314 314 315 314 314 313 313 314 314 314 315 315 316 317 319 318 317 318 318 316 315 316 316 316 317 316 316 316 316 317 318 317 318 318 318 318 318 321
315 314 312 309 309 312 312 312 312 312 312 314 314 312 313 312 312 314 313 313 312 312 315 315 313 315 313 312 312 309 309 311 312 313 313 313 313 314 315 315 315 315 315 315 314 315 315 315 315 314 314 314 314 314 314 314 313 314 314 314 315 316 316 316 316 316 316 317 318 319 319 318 319 318 318 318 317 317 317 317 318 318 318 319 319 320
315 313 310 308 309 312 312 311 312 312 312 314 315 313 312 312 312 314 313 312 312 311 313 313 314 317 317 316 315 311 309 309 310 311 312 312 312 313 314 314 315 315 314 315 314 315 314 314 314 314 314 313 313 313 313 313 313 313 313 314 314 314 315 315 315 315 316 319 320 321 321 321 320 318 317 317 316 315 315 316 317 318 318 319 319 321
314 310 309 310 310 312 312 312 313 312 313 314 314 313 311 311 312 314 316 314 313 314 314 312 316 326 328 321 318 315 312 310 309 307 309 312 313 312 313 314 314 315 315 315 315 314 315 314 314 314 314 313 313 313 312 313 313 313 313 313 314 314 314 314 315 316 317 319 319 319 320 319 317 315 314 314 314 314 315 315 317 317 318 318 320 321
312 309 310 311 311 312 313 313 313 313 313 313 315 315 312 311 312 315 316 315 317 317 313 311 316 325 325 320 320 319 318 318 312 307 307 310 312 312 313 315 315 315 315 315 315 315 315 314 314 314 314 314 313 313 312 313 313 313 313 313 313 314 314 314 314 315 317 318 318 318 317 316 314 313 313 313 313 314 315 316 317 318 319 320 321 322
311 310 310 312 311 312 312 311 312 313 312 313 317 318 314 312 314 316 316 317 320 316 314 315 317 317 317 317 319 315 317 320 317 314 310 308 311 313 313 315 315 315 315 315 315 315 315 315 315 314 314 314 314 314 313 313 313 313 313 313 313 314 314 314 314 315 316 317 317 316 316 316 315 314 314 315 315 315 316 317 318 319 320 321 322 322
310 312 313 312 311 311 310 311 312 312 312 316 320 318 315 315 316 317 316 317 317 314 317 320 313 313 320 322 320 314 314 318 319 320 315 309 312 313 313 314 314 314 315 315 315 314 315 314 315 315 314 314 314 314 314 313 313 313 313 313 313 314 314 314 314 315 315 316 316 316 316 316 315 315 316 317 318 318 318 318 319 319 320 321 322 322
309 311 311 311 312 311 310 311 313 312 312 316 318 317 318 320 319 317 318 317 315 313 318 321 314 313 322 327 323 315 314 317 320 320 314 309 312 314 313 314 314 314 314 314 314 314 314 314 315 315 314 314 314 314 314 314 313 313 313 314 313 313 314 314 315 315 315 315 316 316 316 316 316 317 318 319 319 319 319 319 319 320 320 321 321 321
310 308 309 310 311 310 310 311 310 311 311 312 316 317 317 321 321 321 324 320 314 315 320 324 318 313 317 325 323 316 316 318 316 316 313 308 310 312 312 314 313 314 314 314 314 314 314 315 314 315 314 315 314 314 314 314 314 314 314 314 314 314 314 314 315 315 315 315 316 316 316 316 316 317 319 320 320 320 320 320 320 321 321 322 322 320
311 310 310 310 310 311 311 311 310 312 311 312 320 320 316 322 321 322 327 320 314 318 321 321 316 312 315 321 321 317 317 317 314 315 316 311 310 313 313 313 313 314 314 314 314 314 314 314 314 315 315 315 314 314 314 314 314 314 314 314 314 314 314 314 314 315 315 315 316 316 316 316 317 318 319 321 322 322 321 320 320 321 321 322 321 321
313 314 311 309 310 311 313 313 313 314 313 313 319 319 316 321 319 318 322 319 317 318 314 313 313 312 313 316 317 315 314 315 311 310 312 310 310 313 312 312 313 313 314 314 314 314 314 314 314 314 314 314 314 314 314 314 315 315 315 314 314 314 314 314 315 315 315 316 316 316 317 317 318 319 321 322 324 324 322 322 321 321 321 321 320 320
314 316 313 312 311 311 313 313 313 316 315 313 316 318 317 318 316 316 317 315 317 317 312 310 312 313 315 315 317 315 312 314 310 306 309 309 309 312 312 313 313 313 314 314 314 314 314 314 314 315 315 315 315 314 314 314 315 315 315 315 315 315 315 315 315 315 315 316 316 317 318 319 320 322 323 325 326 326 323 323 324 323 322 322 322 321
313 315 313 314 312 311 313 312 314 318 316 314 317 319 319 319 318 317 318 318 318 318 313 310 312 318 319 317 316 312 309 310 310 310 311 310 311 312 312 313 314 314 314 314 314 314 314 314 314 315 315 315 315 315 315 315 315 316 316 316 316 315 315 315 314 314 315 315 316 317 319 321 323 324 325 327 327 325 324 324 324 324 323 323 322 320
312 313 313 311 309 311 314 313 313 316 315 315 316 317 317 319 320 318 318 320 318 317 315 312 315 321 319 315 312 308 307 308 308 309 310 309 312 312 312 314 313 314 314 313 314 314 314 314 314 314 314 314 315 314 315 315 316 316 316 316 316 315 315 315 314 314 313 314 315 317 319 321 323 326 327 328 326 325 325 325 324 324 324 323 320 317
311 312 312 311 309 310 312 312 312 313 315 315 313 316 317 315 317 318 314 313 313 314 316 314 315 319 317 314 314 312 313 312 309 308 308 309 312 311 312 314 313 313 314 313 314 314 314 314 314 314 314 313 314 313 313 314 314 315 315 315 316 315 315 315 314 314 313 313 314 316 319 321 323 326 327 326 325 325 325 324 324 324 323 320 317 316
314 314 312 313 313 309 307 309 309 309 313 317 315 316 316 312 316 321 317 314 312 312 317 317 315 317 317 316 319 318 314 314 314 311 309 309 310 311 312 313 313 313 313 313 314 314 314 314 313 313 313 313 313 312 312 312 312 313 313 313 314 314 314 314 313 313 312 312 312 314 317 319 322 324 325 325 324 325 324 324 323 322 319 317 315 314
316 315 312 312 314 311 308 310 312 308 309 314 315 313 315 316 316 318 316 316 313 311 318 320 315 315 316 317 321 319 315 317 316 314 314 311 309 311 313 313 313 313 313 314 314 313 313 313 312 313 313 313 312 312 312 311 311 312 312 312 312 312 312 312 312 312 312 311 311 312 315 318 320 322 323 323 323 323 323 322 320 318 316 315 314 312
315 317 314 310 311 312 311 312 315 313 309 310 312 310 314 318 317 316 315 315 315 314 317 319 316 315 316 317 319 316 316 317 315 316 318 311 308 311 312 313 313 313 313 313 313 313 312 312 312 313 313 313 312 312 311 311 311 311 311 311 310 310 311 311 311 311 311 311 311 313 316 319 321 322 322 322 321 321 320 319 317 316 315 313 312 312
312 316 317 311 309 312 315 315 316 316 312 312 314 313 312 312 314 317 315 315 318 318 317 316 313 315 317 315 315 314 314 314 314 316 314 309 309 311 311 311 312 312 312 313 312 312 312 312 313 313 313 313 313 312 312 311 311 310 310 310 309 309 310 310 311 311 310 310 311 314 317 319 320 320 320 320 319 318 317 316 315 314 313 312 312 312
312 314 317 314 312 314 317 316 315 315 314 314 314 314 313 312 314 315 313 314 315 315 319 317 311 315 318 313 312 314 314 313 311 311 310 309 310 311 311 311 312 312 312 312 312 312 312 312 313 313 314 313 313 313 313 312 312 311 310 310 309 309 310 310 310 310 310 310 311 312 314 316 316 316 316 316 315 315 315 315 314 313 312 312 312 312
314 317 320 317 315 316 315 310 308 311 314 314 314 315 314 312 315 315 314 316 315 312 315 315 311 314 315 311 311 312 311 309 308 307 308 310 311 311 312 311 311 312 312 312 312 312 312 312 313 313 314 314 314 314 313 313 312 312 311 310 310 310 309 309 309 309 309 309 309 310 312 312 313 313 313 313 313 314 314 314 313 312 312 312 312 312
313 317 319 317 316 317 315 310 307 308 312 313 313 314 314 314 319 322 318 317 317 314 313 313 311 311 312 311 308 306 306 306 307 308 309 310 311 311 312 312 312 312 312 312 312 312 312 312 313 313 314 314 314 314 314 313 312 311 311 310 310 309 309 309 309 309 309 309 310 310 311 311 311 312 313 313 314 314 313 312 312 312 312 312 311 311
312 315 317 317 316 316 317 314 311 310 311 314 315 315 316 317 319 319 314 312 314 317 316 313 312 313 316 315 308 305 308 309 308 309 309 309 310 311 311 312 312 312 312 312 312 312 312 312 312 313 313 314 314 314 314 313 312 311 311 310 309 309 309 309 308 309 309 310 310 311 311 311 312 313 314 314 314 313 312 312 312 312 311 311 311 311
313 316 315 315 315 315 315 314 314 314 313 315 317 316 316 317 315 313 314 312 312 316 316 313 313 315 316 314 310 310 313 313 310 309 308 309 310 310 311 311 311 312 312 312 312 312 312 312 312 312 313 313 314 314 314 314 313 312 311 311 311 310 310 310 310 310 311 311 311 312 312 313 313 314 314 313 313 312 312 312 312 311 311 311 310 310
318 317 313 313 314 313 313 315 317 318 315 314 316 316 315 314 313 314 316 315 314 315 314 313 314 315 314 315 314 313 315 318 315 309 309 311 311 311 312 311 312 312 311 312 312 312 312 312 312 312 312 313 313 314 314 314 314 313 313 313 312 312 313 312 312 313 313 313 313 313 313 314 313 313 313 312 312 312 312 312 311 311 311 310 310 309
320 316 312 314 313 313 319 321 317 316 314 313 314 314 314 314 313 314 314 314 316 316 313 314 315 314 315 318 320 319 320 322 315 309 310 312 311 311 311 311 312 312 312 312 312 312 313 312 312 312 312 312 313 313 314 314 314 314 314 313 313 313 314 313 314 314 313 313 314 314 313 313 312 312 312 312 312 312 312 311 311 310 310 309 308 307
316 314 313 314 312 313 320 321 316 314 314 313 314 314 314 314 313 314 313 313 316 314 312 316 319 315 314 317 318 318 317 316 312 309 310 310 309 310 310 310 312 312 312 312 312 313 313 312 312 312 312 312 312 312 313 314 314 314 314 313 313 314 313 313 313 313 313 313 313 313 313 312 312 312 312 312 312 312 311 311 310 310 309 308 306 304
312 314 314 312 311 312 315 316 314 315 314 313 314 313 313 313 313 313 312 312 313 313 312 316 318 315 314 315 315 314 312 310 310 310 310 310 311 311 311 312 312 312 312 313 313 313 313 312 312 311 312 312 312 312 313 313 314 314 313 313 313 313 313 312 312 312 312 312 312 312 312 312 312 312 312 312 311 311 311 310 310 309 307 305 304 303
310 314 312 311 311 311 313 313 312 313 314 314 315 313 312 313 312 312 312 312 312 312 311 313 314 312 312 312 311 310 310 309 309 310 311 311 311 311 311 312 312 312 313 313 313 313 312 312 312 312 312 312 312 312 312 312 313 314 313 313 313 313 313 312 312 312 312 312 312 312 312 312 312 312 312 311 311 310 310 310 309 307 305 304 303 302
311 312 310 312 314 311 312 314 312 310 311 313 315 314 313 312 312 312 312 312 312 312 312 313 313 312 312 310 309 309 308 308 308 310 311 311 311 311 311 311 312 312 312 313 313 313 312 312 313 312 312 312 312 312 312 312 313 313 313 313 313 313 313 312 313 313 312 312 312 312 312 312 312 312 311 311 311 310 309 309 307 306 304 303 302 302
315 314 313 314 315 312 310 313 314 312 311 312 313 313 311 311 312 311 312 312 312 311 312 312 312 314 314 311 310 311 309 308 308 310 311 311 311 312 311 311 312 312 312 312 312 312 312 312 312 312 312 312 312 312 312 312 312 313 313 314 313 313 313 313 313 313 313 313 312 312 312 312 312 312 311 311 310 310 309 307 306 304 303 302 302 301
316 316 314 313 314 314 310 311 314 313 312 313 315 315 313 311 312 312 312 312 311 311 312 311 311 315 315 312 312 313 311 310 310 310 312 312 312 312 312 312 312 312 312 312 312 312 312 312 312 312 312 312 312 312 312 311 312 312 313 313 313 313 313 313 313 313 312 312 312 312 312 312 312 311 311 310 310 309 307 306 304 303 302 301 301 300
314 315 314 314 315 314 309 311 314 313 312 315 319 317 312 310 312 312 312 311 311 311 311 311 311 313 312 310 310 310 310 311 311 311 312 312 311 312 312 311 312 312 312 312 312 312 312 312 312 312 312 312 312 312 312 311 311 312 312 312 313 313 313 313 313 312 312 312 312 312 312 312 311 311 310 310 309 307 305 304 302 301 300 300 300 299
312 312 312 313 313 311 310 312 314 313 312 316 317 312 309 310 311 311 312 312 311 310 311 310 310 310 309 307 307 309 310 310 310 310 311 312 311 312 311 312 312 312 312 312 312 312 312 312 312 311 311 312 312 312 311 311 311 311 311 312 312 312 312 312 312 312 312 311 311 311 311 311 311 310 310 309 307 305 303 302 301 300 299 299 299 298
310 311 311 310 309 312 313 312 313 313 312 314 314 310 309 311 311 311 313 313 311 310 310 310 310 310 309 308 308 309 309 308 309 309 310 311 311 311 311 311 311 312 312 312 312 312 312 312 312 312 312 312 312 312 311 311 311 311 311 311 311 311 311 311 311 311 311 311 311 311 311 311 310 310 309 307 306 304 302 301 300 299 299 299 298 298
310 311 312 310 309 313 315 312 312 313 311 312 314 312 308 308 310 312 313 313 312 310 308 309 310 310 310 308 308 308 308 309 310 309 309 310 311 311 311 311 311 312 312 312 312 312 312 312 312 312 312 312 312 312 311 311 311 311 311 311 311 311 311 311 311 311 311 311 311 311 311 310 310 309 308 306 304 303 301 300 299 299 299 298 298 297
312 312 312 312 311 311 313 313 312 311 311 313 316 313 308 307 308 311 313 314 312 308 307 308 310 309 308 308 307 308 309 311 311 310 310 311 311 311 311 312 311 312 312 312 312 312 311 312 312 312 312 312 312 312 311 311 311 311 311 311 311 311 311 311 311 311 311 311 311 311 310 309 309 308 306 304 303 301 300 299 298 298 298 297 296 296
311 311 311 312 312 311 311 312 312 311 312 317 316 310 307 307 308 312 315 315 310 307 308 309 308 307 308 307 307 309 311 312 311 310 310 311 311 311 311 311 311 311 311 311 311 311 311 311 311 311 311 311 311 311 311 311 310 310 310 311 311 311 311 311 311 311 310 310 310 310 309 309 308 306 304 302 301 299 298 298 298 297 297 296 295 294
311 311 311 311 312 311 311 312 313 312 315 318 313 305 305 309 311 313 316 315 309 307 309 310 308 309 309 307 306 309 311 311 310 311 311 310 310 311 310 310 310 310 310 310 311 311 311 311 311 311 311 311 311 311 311 311 310 310 310 310 310 311 310 310 310 310 310 310 310 309 309 308 307 304 302 300 299 298 298 297 297 297 296 295 294 293
311 312 312 311 311 311 312 311 312 313 313 313 309 303 305 311 313 312 312 311 309 308 309 310 310 310 311 309 308 309 310 310 310 310 310 310 310 310 310 310 310 310 310 310 310 310 311 311 311 311 310 311 311 310 310 310 310 310 310 310 310 310 310 310 309 309 309 309 309 309 308 307 305 302 300 298 298 298 297 297 296 295 294 294 294 293
310 311 311 310 310 313 312 310 312 314 310 307 306 305 308 312 314 311 308 308 309 310 310 310 310 310 311 310 309 310 310 310 310 310 310 310 310 310 310 310 310 310 310 310 310 310 311 311 310 311 310 310 310 310 310 310 309 310 309 309 310 310 309 309 309 308 308 308 308 307 306 305 302 300 298 297 297 296 296 296 295 294 293 293 293 293
311 311 311 310 309 312 312 310 312 313 308 305 308 309 309 311 312 310 309 308 309 310 310 310 310 310 310 310 310 310 310 310 310 310 310 310 310 310 310 310 310 310 310 310 310 310 310 310 310 310 310 310 310 310 309 309 309 309 309 309 309 309 308 308 308 307 307 307 307 306 305 302 300 298 297 296 296 295 295 294 294 293 293 292 292 292
311 309 310 312 311 310 311 310 309 308 306 305 308 309 309 309 309 310 310 310 309 310 310 310 310 310 310 310 310 310 310 310 310 310 310 310 310 310 310 310 310 310 310 310 310 310 310 310 310 310 310 310 310 310 309 309 309 309 309 309 308 308 308 308 307 307 307 306 306 305 304 301 299 297 296 295 295 294 294 294 293 293 293 292 292 292
310 307 308 313 313 309 309 308 306 305 304 305 307 309 309 309 309 309 310 310 310 310 310 310 310 310 310 310 310 310 311 311 310 311 310 310 310 310 310 310 310 310 310 310 310 310 310 310 310 310 310 310 310 310 310 309 309 309 309 308 308 308 308 307 307 307 306 306 306 304 302 300 298 296 295 295 294 293 293 293 293 293 293 292 292 291
309 306 308 313 313 309 310 310 308 307 306 305 307 308 309 309 309 309 310 311 310 311 311 310 310 311 310 310 310 310 311 310 310 310 310 310 310 310 310 310 310 310 310 310 310 310 310 309 310 310 310 310 310 310 310 309 309 309 308 308 308 307 307 307 306 306 306 305 305 304 301 299 297 296 295 294 293 293 293 292 292 292 292 292 292 292
309 306 310 314 311 309 311 310 305 304 306 306 307 308 308 308 308 309 310 310 310 310 311 310 310 310 310 311 311 310 311 310 310 310 310 310 310 310 310 310 310 310 310 310 310 310 309 309 310 310 310 310 309 309 309 309 308 308 308 308 307 307 306 306 306 305 305 305 304 303 300 298 296 296 295 294 293 293 292 292 292 292 291 292 291 291
306 307 311 314 311 309 309 307 303 305 307 307 306 307 308 309 309 309 309 309 310 310 310 310 310 311 310 310 310 310 310 310 310 310 310 310 310 310 310 310 310 310 310 310 310 309 309 310 310 310 310 310 309 309 309 308 308 308 307 307 307 306 306 305 305 304 304 303 303 301 299 297 295 295 294 294 293 293 292 292 291 291 291 291 290 290
306 310 312 311 310 310 309 307 307 309 311 308 307 308 309 309 309 309 308 308 309 309 310 310 310 310 310 310 311 310 310 310 310 310 310 310 310 310 310 310 310 310 310 310 310 310 310 310 310 310 310 310 309 309 309 308 308 307 307 306 306 306 305 305 304 304 303 302 301 300 298 296 295 294 294 293 293 293 292 291 291 290 290 289 290 293
306 310 310 309 310 310 308 306 306 308 309 308 307 308 309 309 309 309 309 308 309 309 309 309 309 309 310 310 310 310 310 310 310 310 309 310 310 309 310 310 309 309 309 309 309 309 309 309 309 309 309 309 309 308 308 308 307 307 306 305 305 305 304 304 303 303 303 302 301 299 297 296 295 294 294 293 293 292 292 291 291 290 289 290 294 298
Wind_Speed
13 5 3 5 5 6 5 5 4 3 2 3 1 1 1 3 3 4 4 4 2 5 6 7 8 11 11 11 12 10 6 10 15 18 23 26 27 28 29 31 32 31 30 27 26 26 26 26 27 27 28 28 29 30 30 30 30 30 30 30 30 28 27 27 27 26 26 27 27 27 27 27 26 25 25 24 24 24 23 22 22 21 21 21 21 21
9 5 5 7 8 8 7 7 5 7 6 1 1 3 4 2 5 6 4 4 1 3 4 3 5 10 11 11 12 8 5 10 17 19 24 27 28 29 29 30 32 32 31 29 28 27 26 27 27 28 29 30 31 31 32 32 31 30 30 31 30 29 29 29 28 27 27 28 27 27 26 25 25 24 24 23 23 23 23 22 22 22 21 21 20 20
4 5 9 11 10 9 7 8 8 8 7 1 1 2 4 2 4 7 5 2 1 2 3 2 3 9 10 10 12 9 10 16 22 24 26 27 27 28 30 31 33 32 32 31 30 27 26 26 26 27 28 30 31 31 32 32 31 31 32 32 31 31 31 29 28 28 28 27 26 26 25 24 24 23 23 22 22 22 22 22 21 21 21 20 19 19
5 7 13 14 11 10 8 9 10 8 6 3 3 3 4 2 1 4 4 1 2 0 1 1 2 7 8 7 9 13 17 21 26 26 28 27 25 27 29 30 31 32 32 31 29 27 26 27 27 28 28 29 31 32 33 33 33 34 34 33 32 32 31 30 29 28 27 26 26 25 25 24 24 23 23 23 23 23 23 22 22 22 21 20 19 18
7 4 14 14 9 12 10 10 10 8 5 4 5 4 5 4 3 4 4 3 3 3 2 2 4 6 6 6 8 10 9 15 23 23 25 28 29 29 28 29 31 31 32 32 30 29 28 29 29 28 27 27 30 33 35 34 34 34 34 33 32 31 32 31 30 29 28 28 28 28 27 27 27 26 25 25 25 25 24 24 23 22 21 20 19 18
8 4 17 13 7 11 11 10 11 8 4 4 5 6 8 8 4 4 4 4 3 4 2 1 2 5 4 4 8 6 4 8 13 13 21 29 30 31 31 33 34 35 36 37 34 31 29 31 30 29 28 28 30 32 33 34 34 34 33 33 32 32 32 31 31 30 30 30 30 30 30 30 29 28 27 27 26 25 24 23 22 21 20 19 19 19
4 5 14 10 8 9 8 8 9 8 5 3 5 7 9 9 5 4 1 1 1 4 4 1 4 6 5 4 7 4 5 9 9 8 18 26 28 31 34 37 39 39 41 41 38 33 30 31 32 32 31 29 29 28 29 32 34 35 34 33 33 34 33 31 31 31 32 33 32 32 32 31 30 29 28 26 26 25 24 22 20 19 19 19 20 19
4 8 9 8 9 8 6 7 7 9 7 3 5 8 7 7 8 8 5 4 3 3 4 3 3 3 4 5 6 3 4 9 9 8 14 22 27 30 33 37 39 40 42 41 40 36 33 32 32 32 31 30 29 26 26 30 33 35 35 34 34 34 34 33 33 33 34 34 34 33 33 33 32 31 29 28 27 26 23 22 21 20 20 21 21 20
6 10 12 11 9 7 7 8 8 10 6 5 5 6 6 6 7 6 5 5 2 2 4 4 1 2 5 6 5 3 3 8 9 9 11 18 25 28 30 33 35 38 40 40 40 38 35 34 32 31 30 29 29 28 27 28 29 31 33 34 34 34 34 34 34 34 34 34 34 34 34 34 33 32 31 30 29 27 24 22 21 21 22 22 22 21
2 10 15 14 8 8 9 8 9 11 7 5 5 5 3 2 2 3 4 4 1 1 6 5 2 3 5 6 4 2 3 6 9 9 10 16 22 22 24 26 27 30 32 34 36 36 35 33 32 31 31 31 30 29 29 28 28 30 30 32 33 35 35 34 34 35 35 35 36 36 36 36 34 33 32 32 30 28 25 23 23 23 23 23 22 21
1 4 10 9 7 8 8 5 7 9 7 6 7 5 4 3 4 3 2 4 2 4 6 6 4 3 4 5 4 4 5 7 8 8 9 14 17 14 13 15 16 18 20 23 27 30 32 33 33 33 33 32 31 30 30 30 29 30 30 30 32 33 34 34 35 35 35 36 37 37 37 36 35 34 33 32 31 28 26 26 25 25 24 23 22 21
4 4 4 3 5 7 7 3 3 3 4 5 4 4 3 1 2 2 3 2 4 6 5 4 2 3 5 5 4 6 6 6 8 8 9 11 13 10 6 5 7 8 11 14 18 22 25 29 32 34 34 33 32 31 31 30 30 30 30 31 31 31 33 34 34 35 35 36 36 37 36 36 36 35 34 33 31 28 26 27 27 26 25 23 22 21
2 1 1 1 4 7 8 5 1 2 2 2 3 5 4 1 0 2 2 1 5 5 3 1 1 3 6 6 8 10 10 11 11 12 13 14 17 16 10 9 10 9 10 11 13 16 20 23 26 28 30 31 31 31 31 31 30 30 30 31 31 31 31 32 33 34 35 36 36 36 36 36 36 35 34 32 30 28 27 27 27 26 24 22 21 20
2 5 2 2 2 6 9 7 4 2 3 4 4 5 5 3 3 5 3 1 4 4 2 2 2 3 4 5 11 14 15 18 16 15 18 20 22 23 21 20 20 18 16 13 12 12 14 18 19 22 24 26 28 29 30 31 32 32 32 32 32 31 31 32 33 34 35 35 36 36 36 36 35 35 34 32 30 28 27 27 26 24 23 21 20 20
6 4 4 4 2 6 8 7 7 7 5 6 4 4 5 5 4 4 3 3 4 3 2 2 1 3 3 4 8 13 17 20 19 19 21 23 24 24 25 27 27 26 22 18 15 12 11 14 17 20 22 24 26 27 28 30 32 34 34 34 34 33 33 33 34 34 35 35 35 36 36 36 35 34 33 31 30 28 27 26 24 23 23 22 21 20
8 5 3 1 2 7 8 5 6 8 5 5 2 3 5 6 5 2 2 4 3 1 2 2 3 4 4 6 10 10 12 15 18 19 18 19 20 17 19 22 23 24 21 18 16 13 12 14 17 19 22 24 25 26 27 29 31 34 35 35 36 35 35 35 35 36 36 36 36 36 36 36 35 33 32 31 29 28 26 25 24 24 24 23 22 20
7 2 4 3 3 3 5 4 4 6 5 2 2 4 5 4 6 3 2 1 3 3 4 1 4 5 3 7 11 8 9 10 10 11 14 17 17 15 18 18 17 17 16 15 15 14 14 15 17 19 21 23 25 26 28 29 31 33 35 36 37 37 37 38 38 37 37 37 37 36 36 36 35 33 32 31 29 28 27 26 26 25 25 23 21 20
6 1 3 1 2 1 2 5 2 1 4 4 4 6 3 1 3 3 1 1 2 5 5 0 4 5 3 5 7 7 9 11 9 8 11 15 15 18 22 20 16 14 13 14 15 15 16 16 17 19 20 21 22 23 25 26 29 32 34 36 37 38 39 39 39 38 37 37 36 36 36 35 34 33 31 30 29 29 28 28 27 26 24 22 21 21
5 3 2 0 3 1 2 5 3 2 2 4 4 4 4 3 2 1 3 3 1 4 5 3 3 4 5 6 4 5 9 10 9 7 7 10 13 18 22 21 18 15 13 14 14 14 15 15 16 16 16 17 17 18 19 21 24 28 31 33 35 36 36 36 37 37 36 35 34 34 34 33 33 32 31 30 30 29 29 28 27 25 23 22 23 22
4 4 1 1 1 0 3 2 5 2 2 3 2 2 2 2 4 3 3 3 3 4 4 3 4 4 7 7 6 9 11 10 10 7 6 9 12 14 17 18 17 15 15 14 13 13 14 14 14 13 13 13 14 15 16 16 19 22 25 29 31 33 33 33 33 33 33 33 32 32 31 31 31 30 30 30 30 29 29 27 26 24 24 24 24 23
3 3 3 1 2 1 1 3 7 7 4 3 3 4 2 1 1 1 1 2 3 4 3 2 6 7 6 5 9 12 12 12 13 9 6 9 12 13 14 14 14 13 14 14 13 13 13 12 12 11 10 11 11 12 13 14 15 16 19 23 26 28 30 30 30 30 30 30 30 30 29 29 29 29 30 30 29 29 28 26 25 25 26 25 24 24
3 3 5 2 1 3 4 4 5 7 7 6 6 7 7 4 3 3 5 1 2 3 4 3 8 10 5 6 9 11 10 12 12 7 6 11 14 12 11 10 11 9 9 11 11 12 12 12 11 10 10 10 10 11 11 12 13 13 15 18 20 23 25 27 27 27 27 27 28 28 28 29 29 29 30 29 29 28 27 26 27 27 27 26 25 24
3 5 5 2 3 5 4 3 2 2 2 3 3 4 6 5 5 5 6 3 1 2 2 2 7 9 3 7 9 10 11 10 7 5 6 11 10 8 7 7 8 7 6 8 10 10 11 12 12 12 11 10 10 10 10 11 12 13 14 15 17 20 22 23 24 24 25 26 27 28 28 29 29 29 28 28 27 27 27 28 28 28 27 26 24 22
5 5 4 1 2 3 4 4 2 1 2 1 3 1 4 4 4 5 5 3 3 4 2 1 7 6 2 2 5 8 8 6 6 5 6 7 5 6 7 7 7 6 5 7 8 9 11 12 13 13 13 12 10 10 10 11 12 12 13 14 15 17 19 20 22 23 24 26 26 27 27 27 27 27 27 27 27 28 29 29 29 28 27 25 23 20
6 3 4 4 2 3 3 3 3 2 1 2 2 1 3 4 6 3 1 2 2 6 7 5 8 5 4 4 4 4 5 5 6 5 5 6 6 7 7 7 7 6 5 6 7 8 10 11 12 14 14 14 12 11 11 11 12 12 12 14 15 16 18 20 21 23 24 25 26 27 27 26 27 27 27 28 29 29 30 29 29 28 26 23 22 21
8 4 5 7 6 5 7 7 6 4 3 2 3 6 6 7 9 6 2 2 7 7 9 10 9 4 5 5 4 3 5 4 5 3 3 5 5 6 5 5 5 5 5 5 6 7 10 11 13 14 15 15 14 12 11 11 12 13 13 14 16 17 19 20 22 23 23 25 26 26 27 27 28 28 28 30 30 29 29 29 28 26 24 23 23 22
4 2 7 10 11 13 12 9 7 10 9 8 9 11 10 10 11 7 3 6 7 4 7 12 7 1 5 5 2 4 5 5 5 2 2 1 1 3 3 4 4 4 5 6 7 8 10 12 14 16 16 16 16 14 13 12 12 14 15 16 18 19 20 21 22 23 24 25 26 26 28 28 28 29 29 30 30 29 29 28 26 25 24 24 24 23
3 4 11 13 15 11 6 6 8 13 15 14 12 13 12 10 10 10 12 10 6 4 8 6 6 5 6 5 5 6 5 5 7 7 7 6 4 4 4 5 5 5 6 8 11 13 13 13 14 16 17 17 17 16 15 14 14 16 17 18 19 21 22 22 23 24 25 25 26 27 29 29 29 29 30 29 29 29 28 27 26 25 25 25 25 24
4 9 12 12 13 6 3 6 10 12 12 10 13 16 16 15 15 18 20 13 7 9 11 5 8 11 8 6 7 7 7 8 8 8 7 7 7 7 7 8 8 9 11 13 14 15 15 15 15 16 17 18 19 19 18 17 17 18 20 21 21 22 22 23 23 24 25 26 27 29 29 30 30 30 30 30 29 29 28 27 27 27 27 27 26 25
5 8 7 10 11 4 3 6 10 12 9 7 12 16 16 19 22 22 22 17 14 18 13 2 7 11 7 7 8 11 16 14 10 10 11 12 12 11 11 12 14 15 16 16 16 16 16 16 16 17 18 19 20 21 20 19 19 20 21 22 23 23 23 24 24 25 26 27 28 29 29 30 30 30 30 30 30 29 28 29 29 29 29 28 27 26
4 5 3 7 7 2 2 4 5 7 8 8 11 14 17 21 22 21 18 13 13 18 12 8 15 14 6 9 12 17 19 13 11 16 18 17 16 14 14 16 18 20 19 18 17 18 18 17 17 18 19 19 20 21 21 21 21 21 23 24 24 25 25 25 26 26 27 28 28 28 29 29 30 30 30 30 29 29 29 30 30 30 30 29 28 27
2 2 2 6 6 4 1 5 4 4 4 2 9 16 20 20 16 14 12 10 14 14 9 10 15 10 6 10 13 13 11 11 16 21 22 20 19 18 19 20 21 22 21 21 20 20 20 20 20 21 20 18 19 19 20 21 22 23 24 25 27 27 27 27 27 27 28 27 28 28 29 29 30 30 30 30 30 31 31 31 32 31 31 30 29 27
5 5 2 5 6 4 1 6 8 6 4 5 12 16 18 15 11 9 9 13 16 11 8 12 12 5 6 8 9 7 8 13 19 22 23 24 23 22 23 23 24 24 23 23 23 23 24 25 24 24 22 20 19 18 18 20 22 23 24 26 29 29 29 29 29 29 29 29 29 30 30 30 31 31 31 31 31 32 33 33 33 32 31 31 29 28
7 7 4 4 5 3 2 6 8 4 6 10 8 10 15 14 12 12 14 17 17 12 12 13 8 4 6 8 10 11 13 17 21 24 25 24 23 23 24 23 23 23 22 22 22 23 23 24 23 24 23 22 21 20 20 22 23 24 26 28 30 32 32 32 32 31 31 31 31 32 32 32 33 33 33 33 34 35 35 35 34 33 32 31 30 29
11 9 4 3 4 3 4 7 6 7 12 8 3 4 14 17 17 19 21 18 16 16 17 17 11 7 8 11 15 16 17 20 23 25 23 22 23 23 24 25 25 23 23 23 22 21 21 21 21 22 22 23 23 23 23 23 24 27 29 31 32 34 34 34 34 33 33 33 33 34 34 35 35 35 35 36 36 37 37 36 35 34 33 32 30 29
13 10 4 3 3 3 4 6 8 7 6 5 4 2 6 9 10 13 14 12 12 13 14 18 18 13 12 16 18 18 18 18 20 24 23 21 23 26 28 28 28 27 27 26 24 23 23 23 23 24 25 26 26 26 25 24 26 28 30 32 34 35 35 35 35 35 35 35 35 35 36 36 36 37 37 38 39 39 38 37 36 35 34 32 31 29
11 10 6 4 2 3 5 5 5 5 8 8 7 4 6 8 8 9 7 11 14 15 16 18 16 12 14 19 23 23 18 12 14 19 22 23 28 33 33 31 31 31 31 29 27 26 25 26 26 26 28 29 29 28 27 26 27 29 31 33 35 36 36 36 37 37 36 36 36 36 37 37 38 38 39 40 40 40 39 38 37 36 34 33 31 30
7 7 9 8 3 3 5 2 3 5 10 10 5 6 11 15 14 12 7 10 11 16 20 18 12 10 12 18 23 20 11 7 8 9 14 26 33 33 31 31 31 30 30 29 29 29 28 29 29 29 30 30 30 29 28 27 28 29 31 33 34 36 38 38 38 38 38 38 38 38 38 39 39 40 41 41 42 41 40 39 38 36 34 33 31 29
6 3 6 7 3 4 6 5 6 9 10 6 6 8 15 21 19 13 2 9 6 12 21 18 11 13 18 21 19 10 4 5 7 8 19 32 32 26 25 26 25 24 25 25 27 28 29 30 31 31 32 32 31 30 29 27 27 29 31 32 33 36 39 40 40 40 39 39 39 39 39 40 41 42 42 42 42 41 40 38 37 36 34 33 31 29
6 3 4 6 5 6 7 6 5 6 7 6 8 11 18 25 22 14 2 10 6 14 23 23 18 20 26 23 13 6 6 10 11 16 27 30 26 23 21 20 18 17 17 18 19 21 23 25 27 29 29 29 28 27 26 26 26 28 30 31 33 36 37 38 39 39 40 39 39 40 41 42 42 42 43 42 41 40 39 38 37 36 34 33 31 29
4 2 3 6 7 6 7 6 5 5 6 7 7 14 26 25 15 7 8 9 9 16 22 25 23 23 24 20 14 12 17 22 22 23 24 21 21 21 18 16 15 14 14 14 15 16 18 20 22 23 23 23 23 23 23 22 23 25 27 30 33 33 33 35 38 39 40 40 40 41 42 42 43 43 43 42 41 40 39 38 37 36 35 33 32 30
5 3 2 5 6 5 5 5 3 6 8 10 10 18 25 16 5 9 8 9 14 17 17 19 20 19 20 21 22 22 21 21 21 21 19 19 21 20 18 18 18 17 16 15 14 15 16 17 18 18 18 17 18 18 18 19 20 22 25 28 29 28 30 34 37 39 40 41 41 42 42 43 44 44 43 43 42 41 40 39 37 36 34 32 31 29
8 7 5 5 5 4 2 5 4 8 8 20 20 10 9 7 6 11 12 11 15 16 15 17 16 13 16 19 20 20 17 14 15 16 16 17 18 17 17 17 17 17 18 16 14 14 14 15 16 16 15 14 13 13 14 16 18 20 23 25 25 27 31 34 36 38 40 41 42 42 43 44 45 45 44 44 43 42 40 39 37 35 33 32 30 29
7 8 7 6 6 6 6 10 8 4 11 31 27 11 15 15 10 17 19 13 14 16 15 18 17 13 15 16 14 15 16 14 14 15 15 15 15 13 13 13 14 17 19 18 15 13 13 14 15 15 14 13 12 12 12 14 16 18 20 22 23 27 31 33 36 38 39 41 42 43 44 45 46 46 45 44 43 41 40 38 37 35 33 32 30 29
10 9 7 5 5 6 5 9 6 1 15 34 27 18 32 32 15 17 24 18 16 19 18 19 20 17 16 17 15 16 17 16 15 15 15 15 13 11 11 13 15 18 20 21 19 15 14 15 14 14 14 12 10 10 10 11 14 15 17 19 21 25 28 31 34 37 38 40 42 43 45 46 46 46 45 44 42 41 39 38 37 35 34 33 31 29
6 5 5 3 2 4 5 7 5 2 11 28 22 17 36 42 24 18 23 19 16 19 19 19 21 20 19 20 19 19 19 18 16 16 17 16 15 14 14 15 17 20 22 22 20 17 15 14 13 13 11 9 9 10 11 12 14 15 17 19 21 24 27 30 32 35 37 39 41 43 46 47 47 47 45 43 42 40 39 37 36 35 34 33 31 29
3 6 5 3 4 6 7 9 10 7 12 26 25 17 27 39 32 22 20 19 18 19 20 20 20 20 21 21 21 20 19 18 17 18 19 19 19 18 17 17 19 21 22 21 19 17 16 14 13 12 10 9 10 11 12 14 16 17 18 20 21 24 27 29 31 34 36 39 42 45 46 47 48 48 46 44 42 40 39 37 36 35 34 33 31 29
5 10 7 3 6 8 6 5 7 10 15 25 28 20 19 30 35 30 24 22 21 21 21 21 20 21 22 22 21 21 19 18 19 21 22 22 22 21 20 21 21 21 21 20 18 18 16 14 13 12 11 12 13 14 15 16 17 18 19 20 22 24 27 29 31 33 35 38 42 45 47 48 48 48 46 45 43 41 40 38 37 35 34 32 30 27
9 11 8 6 6 5 5 1 5 6 5 15 24 25 22 26 34 36 33 29 23 21 21 21 21 22 22 22 21 21 20 21 22 23 24 24 23 22 22 21 19 18 17 17 16 16 15 14 14 14 14 14 15 17 18 18 18 20 21 21 23 25 27 29 30 32 35 38 42 45 47 48 48 47 46 45 43 42 40 39 37 35 33 30 28 26
10 7 4 5 6 8 8 6 10 7 3 12 25 32 31 29 29 32 35 33 28 24 22 20 20 20 21 21 21 22 22 23 23 23 23 23 21 21 20 18 16 15 15 15 15 16 16 16 16 16 16 17 18 20 20 20 21 22 22 23 24 25 27 29 31 33 35 38 41 45 47 48 48 47 46 45 44 43 41 39 37 34 32 30 29 27
9 8 9 8 8 11 11 16 22 16 8 13 25 33 35 31 26 24 27 31 31 29 25 22 21 20 20 20 21 21 22 22 21 21 21 19 19 19 19 18 17 15 14 15 16 17 17 17 18 18 18 19 20 21 21 22 22 23 23 23 24 25 28 30 31 33 35 37 41 44 46 48 48 47 46 45 44 43 42 41 39 36 34 32 31 28
Wind_Direction
162 145 182 190 186 186 183 172 205 276 195 200 255 347 233 228 266 259 264 297 170 177 234 217 216 245 246 256 260 249 238 235 238 240 240 239 240 241 238 236 236 237 242 246 243 243 243 243 241 239 236 234 233 231 230 229 227 227 227 227 228 228 228 228 226 226 227 228 228 228 230 231 233 234 237 238 240 243 245 247 250 251 254 256 257 258
156 160 205 199 191 183 173 170 200 256 258 262 22 323 305 269 269 268 257 306 337 178 259 257 222 255 255 258 267 249 223 238 236 236 242 241 238 241 242 241 241 243 248 249 247 246 245 244 242 240 237 235 234 232 230 230 228 228 229 229 229 228 229 229 229 228 229 231 230 231 233 234 237 238 239 241 243 246 247 249 251 251 253 254 256 257
148 217 214 197 188 171 166 176 192 237 250 247 182 249 277 269 282 283 262 277 32 182 274 343 223 258 262 260 267 245 225 242 243 241 247 247 240 240 242 243 245 246 249 249 249 249 247 245 242 240 238 236 235 234 233 232 230 230 230 231 231 230 230 231 231 231 231 234 236 238 240 241 244 245 245 247 249 250 249 249 250 249 249 249 252 254
177 233 205 185 172 163 175 188 193 227 237 216 209 221 248 238 239 284 293 328 14 47 215 67 268 272 274 275 276 254 238 245 251 248 251 252 247 245 245 245 247 247 249 249 250 252 250 245 241 240 238 236 235 234 233 232 230 231 230 231 232 231 232 232 232 233 234 237 240 243 245 246 247 248 248 248 248 247 245 244 244 243 243 243 247 250
203 198 165 163 167 172 179 189 196 217 228 219 216 214 241 243 219 252 310 343 336 349 104 79 334 296 272 268 273 264 248 248 253 252 252 252 249 250 249 246 247 247 250 253 253 254 252 249 245 242 241 238 235 233 232 231 231 231 231 231 233 233 233 233 234 235 235 237 239 241 242 243 243 242 241 240 240 239 238 238 239 240 242 244 247 250
233 165 149 155 177 179 179 191 197 199 205 234 221 212 238 253 263 281 335 18 359 319 293 95 285 283 298 272 254 273 326 271 258 255 252 252 250 248 248 247 246 248 251 255 255 253 251 252 249 244 243 241 239 236 233 232 232 234 234 234 234 234 234 234 235 235 236 237 237 238 238 238 238 236 235 237 238 238 238 239 240 243 246 248 250 252
235 150 151 159 173 180 190 200 198 185 181 236 211 199 229 248 263 266 268 74 279 270 290 63 190 255 317 290 253 286 329 287 274 267 255 254 251 247 248 248 248 249 251 253 253 250 248 249 249 246 244 244 245 244 239 235 234 234 235 235 235 235 235 234 234 235 236 237 238 238 238 238 239 238 238 240 242 243 244 245 246 246 248 250 251 251
137 139 160 166 167 181 199 203 202 180 171 228 215 195 206 220 232 230 199 200 238 262 312 12 143 233 290 264 264 316 316 291 286 275 261 254 249 247 248 249 250 250 251 252 252 250 248 247 248 247 247 248 251 252 247 241 237 235 235 236 236 236 236 234 233 234 235 237 238 239 240 241 240 241 242 244 246 247 248 248 248 246 246 248 249 250
133 161 178 169 171 195 199 203 195 174 184 233 213 183 186 194 211 210 184 201 262 332 292 309 131 207 270 271 299 341 285 284 282 267 260 253 247 245 247 249 252 253 253 254 254 253 251 249 249 249 249 250 252 251 249 248 244 240 237 237 238 237 236 235 234 234 234 236 238 239 241 242 242 243 244 245 247 248 248 248 247 246 246 246 246 248
141 184 181 169 179 198 195 205 187 175 196 204 148 100 93 93 100 140 161 170 113 290 250 258 210 207 267 276 297 329 272 265 268 262 258 257 253 250 252 254 257 259 258 256 254 253 251 249 248 249 249 248 249 248 247 248 246 243 240 238 238 237 237 236 235 235 236 236 238 239 241 242 243 243 244 245 246 246 245 245 245 246 246 246 247 248
21 162 174 174 189 187 181 189 175 181 183 137 116 82 65 48 55 73 86 108 142 251 247 248 232 218 267 274 243 228 230 225 238 259 266 262 262 264 267 267 265 266 266 260 255 252 250 248 247 247 247 247 248 248 245 244 244 242 240 238 238 237 237 237 236 237 237 237 238 239 240 241 242 242 243 245 246 246 245 243 243 245 246 247 248 250
32 103 169 186 180 155 139 150 151 178 175 127 118 121 112 15 29 27 7 73 205 244 258 263 261 218 241 260 240 236 250 235 223 240 256 261 270 280 293 301 297 286 279 270 259 254 250 247 246 246 247 248 248 248 245 243 242 241 239 237 237 236 235 236 237 238 238 238 239 240 240 242 242 242 243 245 248 249 247 245 245 245 246 247 248 251
61 184 238 148 184 157 137 160 133 60 159 172 141 139 155 244 232 223 253 205 225 249 270 268 271 238 239 254 259 260 266 254 233 231 244 260 275 282 284 292 302 301 296 290 273 261 254 249 247 247 248 248 247 247 245 243 241 240 239 237 237 236 236 237 237 238 238 238 239 239 240 241 241 242 244 246 249 251 249 247 247 247 248 249 251 254
215 298 282 133 207 185 157 164 175 138 168 183 167 161 179 185 177 213 234 262 259 266 269 228 234 264 274 264 248 245 249 251 250 252 258 265 274 280 282 284 286 286 286 289 286 275 262 254 251 249 248 247 246 246 245 243 240 238 237 237 238 237 238 239 239 240 239 239 239 239 240 241 242 243 244 246 248 249 249 248 249 250 250 252 256 258
184 246 223 171 169 176 172 180 173 153 164 193 183 160 176 176 179 209 212 212 239 264 269 248 210 207 213 251 246 245 258 264 264 263 263 265 270 277 281 279 277 278 277 275 275 274 265 254 250 249 248 247 247 246 245 243 240 238 236 236 237 237 238 240 241 242 242 241 240 239 240 241 242 243 244 246 248 248 247 247 247 248 248 251 253 251
180 216 266 315 109 153 168 189 148 134 170 211 156 141 201 190 164 178 206 181 175 249 255 222 226 213 210 276 281 264 268 272 265 263 261 259 262 270 275 274 271 271 270 265 263 260 253 248 246 247 250 250 250 249 247 244 242 240 238 237 238 238 239 240 242 243 244 244 242 240 240 241 241 242 243 244 245 244 243 244 244 244 246 248 246 240
170 220 314 4 38 134 159 163 143 156 185 174 134 204 231 181 139 145 247 55 82 238 253 200 250 288 315 291 291 283 275 277 268 264 262 257 260 266 269 271 270 268 264 257 253 250 247 246 248 252 254 255 255 252 250 247 244 242 241 240 240 240 241 241 242 244 245 245 243 241 240 240 241 240 241 241 240 239 238 238 239 240 242 241 235 228
154 138 311 84 118 240 151 125 101 108 141 136 185 208 204 136 120 119 205 349 52 243 267 254 231 271 292 268 302 311 275 271 272 264 263 261 258 258 263 266 266 263 258 252 248 248 249 251 256 259 260 260 258 256 253 249 246 244 242 242 242 242 242 243 243 244 244 244 242 241 239 239 239 238 238 238 236 235 235 235 236 237 236 230 221 215
148 131 302 5 148 248 40 112 127 12 89 148 182 170 135 175 211 131 186 204 195 242 271 298 263 253 219 227 295 294 252 253 267 272 272 263 250 252 264 269 266 258 251 250 251 254 259 262 266 268 268 267 264 261 258 252 247 244 242 241 240 240 241 241 242 242 242 241 239 239 237 236 235 234 233 232 231 232 233 234 235 233 226 217 209 205
143 133 224 304 155 103 28 138 182 194 40 66 100 122 114 159 182 179 177 173 185 224 253 303 306 254 215 203 211 239 249 255 264 268 262 258 257 263 274 278 275 265 255 256 258 262 268 272 274 275 273 270 267 264 260 253 247 242 240 239 237 236 235 235 236 237 238 237 235 234 232 231 230 229 229 228 228 229 230 231 229 222 214 206 201 200
132 129 174 310 355 139 168 208 185 168 156 142 151 173 188 153 131 167 181 138 151 190 209 275 279 254 230 195 194 216 239 249 256 262 257 269 282 285 285 288 288 276 262 261 264 268 273 276 278 277 273 267 264 262 259 254 248 241 238 237 235 234 232 230 230 231 233 233 231 230 228 227 227 226 227 227 227 228 226 223 216 209 204 199 197 197
158 140 148 137 160 185 227 247 190 177 180 177 185 192 187 171 137 182 229 219 107 187 186 206 265 262 230 189 198 209 221 235 250 263 271 288 297 295 293 298 300 289 265 257 262 270 277 282 282 278 272 265 261 260 258 253 249 242 237 234 231 229 228 228 227 228 229 229 228 228 227 227 227 226 227 227 225 222 216 210 205 199 198 197 195 192
110 104 120 139 202 208 243 274 217 209 151 143 204 199 172 171 155 173 219 230 201 233 150 132 266 271 224 182 199 209 215 231 255 269 279 293 305 312 316 313 306 300 271 249 252 263 274 281 282 281 278 274 269 265 260 254 248 243 237 232 230 227 225 224 224 225 225 226 225 226 225 225 225 225 224 221 216 210 204 200 198 196 196 194 191 186
123 110 110 89 310 302 309 329 338 4 77 158 261 149 150 185 154 152 194 185 197 220 136 160 259 267 290 247 236 231 224 240 268 268 272 290 331 351 337 328 317 310 289 258 250 256 268 277 282 285 286 283 277 270 262 256 249 242 237 232 228 225 222 219 217 218 219 221 221 221 221 221 220 218 215 209 203 199 196 195 195 195 194 189 185 182
170 151 115 121 61 1 335 315 278 244 136 197 230 123 149 125 98 108 150 102 235 210 166 203 247 246 274 320 349 294 258 252 257 254 266 289 337 354 343 342 336 327 311 279 261 263 272 279 282 283 285 283 280 273 264 257 251 243 236 229 223 218 215 212 211 212 215 216 217 217 215 213 211 208 204 199 196 195 194 194 195 193 189 184 182 184
174 177 146 151 156 181 205 217 213 184 142 197 187 176 181 159 157 182 149 167 235 208 173 213 243 265 301 332 26 306 266 246 242 245 281 295 341 7 7 14 4 353 343 309 284 280 282 283 280 277 277 278 279 275 266 255 247 240 232 225 219 214 212 210 209 210 211 212 211 210 207 204 202 200 198 195 193 193 194 194 192 189 184 182 184 185
147 184 181 185 190 197 202 204 169 135 154 203 196 182 190 192 186 177 162 208 217 180 199 225 216 194 298 310 314 280 272 254 249 228 176 234 350 356 347 355 343 339 338 315 298 292 289 286 281 278 277 275 273 271 264 253 243 236 230 223 216 212 211 210 210 209 208 207 206 203 200 197 196 195 194 193 193 194 195 192 189 186 183 183 186 188
90 195 198 202 206 205 190 183 158 150 179 196 182 181 195 194 183 187 210 212 155 157 230 212 154 195 256 266 251 257 252 242 246 228 205 216 249 273 273 280 290 298 301 297 296 295 293 288 281 278 278 275 272 268 259 249 240 232 228 223 217 213 210 208 208 207 204 203 200 198 196 194 194 194 194 195 196 195 193 189 186 185 184 184 187 190
141 201 201 198 205 205 111 157 164 167 188 184 175 191 196 191 194 204 218 212 163 212 235 160 161 211 222 223 236 237 225 231 244 242 240 253 269 281 289 294 300 302 297 294 294 294 291 285 279 275 275 275 272 267 259 248 239 231 226 222 217 213 209 206 204 202 200 198 196 194 194 194 194 196 197 197 196 194 191 188 186 186 186 186 188 191
174 195 188 177 192 195 116 169 176 172 174 172 190 201 198 201 207 210 217 216 210 231 243 227 239 240 207 200 232 240 242 250 268 277 279 281 279 286 295 296 295 293 288 286 285 285 283 279 275 271 270 271 271 268 262 251 242 234 227 223 217 212 209 205 203 201 199 198 196 196 196 197 198 199 199 198 195 192 190 188 188 188 188 189 191 194
195 185 135 137 169 207 118 150 178 174 167 179 203 211 209 211 215 216 219 218 224 242 250 265 271 265 208 188 219 237 245 256 273 270 266 265 266 271 273 273 276 276 273 273 272 274 274 273 272 269 267 271 272 270 264 255 246 237 230 223 217 212 210 207 205 204 203 202 201 201 201 202 202 202 200 198 195 192 191 191 191 190 191 193 194 196
147 162 79 105 152 228 203 127 127 96 84 201 231 225 217 214 215 218 218 211 222 234 230 242 260 256 186 187 212 230 233 231 244 251 253 255 255 257 260 264 267 267 267 270 269 269 271 270 271 271 269 271 271 268 263 254 246 240 232 225 219 214 212 211 210 208 208 207 207 208 207 207 206 204 202 199 196 194 194 194 193 193 195 196 198 199
128 130 109 130 162 233 278 126 123 92 72 264 247 222 211 211 207 207 222 224 223 217 205 229 242 219 164 179 195 212 213 215 229 237 245 254 255 256 258 261 264 265 266 269 270 269 270 271 272 274 273 271 270 269 266 256 248 244 237 229 223 218 216 216 215 214 213 212 213 213 212 210 208 206 204 201 198 197 196 196 197 197 198 199 200 202
141 143 162 166 159 200 191 123 108 128 207 240 241 189 186 195 190 196 221 225 218 211 218 234 238 165 151 173 188 206 211 215 228 236 244 254 256 258 259 258 261 264 263 265 266 265 267 268 270 272 272 271 270 268 266 260 252 247 241 234 228 224 222 220 219 218 217 216 217 216 214 212 210 208 206 202 200 199 198 199 199 199 200 201 202 204
162 163 171 150 133 166 159 119 130 205 225 246 313 155 180 185 185 201 220 223 215 218 229 240 240 202 190 203 206 213 218 222 232 239 244 250 251 253 256 258 260 263 262 262 262 261 262 263 265 269 271 271 268 264 261 258 253 248 241 237 233 229 228 227 224 223 221 219 218 217 215 213 210 208 206 203 201 200 200 200 200 200 201 202 204 207
169 165 148 112 127 135 135 159 187 224 260 281 313 297 178 165 174 204 230 244 233 222 227 238 239 230 231 235 231 231 236 238 242 243 240 242 248 251 253 256 262 266 267 266 265 264 264 263 266 269 271 272 270 265 262 259 256 252 245 241 238 234 233 231 229 227 224 222 220 217 215 213 211 208 206 204 202 201 201 201 201 201 202 203 205 208
162 156 141 145 170 131 142 197 235 310 303 261 239 217 163 149 156 175 217 251 234 215 219 230 235 235 240 245 245 244 244 248 256 252 244 244 251 254 256 259 264 268 270 271 269 267 265 264 265 267 269 273 274 271 267 262 257 255 250 245 242 238 236 234 232 230 227 224 221 218 216 214 212 210 207 205 204 203 202 202 202 202 204 206 207 209
150 158 159 168 189 104 121 189 266 267 259 241 202 173 172 170 163 153 186 249 233 211 216 223 227 227 233 245 247 242 240 259 268 262 259 259 260 261 263 264 265 267 269 270 270 268 266 265 264 265 268 271 274 275 272 266 259 255 252 249 246 243 240 237 235 233 230 227 224 220 218 216 213 211 209 208 206 205 204 203 203 205 207 209 210 211
104 103 140 147 150 134 147 178 201 222 246 226 160 171 179 170 149 120 162 262 232 193 206 211 213 219 227 237 239 221 196 258 262 259 266 269 269 269 268 268 269 269 268 269 270 270 269 269 267 267 268 268 270 273 273 269 263 255 252 251 248 245 243 240 239 237 233 229 225 221 218 216 213 212 210 209 208 207 206 205 205 206 208 209 210 211
114 111 133 148 168 172 173 192 214 236 249 214 184 180 169 156 134 107 242 255 208 178 193 198 203 218 226 230 221 168 184 227 250 269 273 275 276 274 273 273 271 270 268 267 268 268 267 268 268 268 269 269 271 273 273 271 265 256 252 250 247 246 246 246 244 239 234 230 225 221 218 216 214 212 211 210 209 208 207 208 208 208 209 208 208 208
122 156 173 172 176 172 178 205 252 266 231 220 207 167 150 139 128 150 216 219 182 180 189 194 204 219 226 219 195 193 226 239 252 269 276 280 280 278 278 274 268 269 271 268 268 269 267 269 270 271 272 272 271 270 270 268 263 257 253 249 248 250 252 249 245 240 235 230 226 223 219 216 215 213 211 211 211 210 209 210 210 211 210 210 208 207
160 169 183 172 164 162 180 196 261 275 222 183 165 157 150 141 174 212 186 148 158 171 179 189 204 219 223 219 213 220 241 255 259 265 270 272 276 279 279 278 276 276 275 273 272 273 270 270 273 276 277 277 273 270 268 264 260 257 252 250 252 255 252 248 244 240 236 231 226 223 219 217 215 213 211 211 211 211 211 211 211 211 211 210 210 209
171 160 178 190 164 142 160 174 210 268 204 149 134 140 173 185 192 173 152 144 162 167 172 186 200 219 224 225 227 232 245 262 265 268 273 273 276 279 278 282 286 284 283 281 275 272 269 266 268 270 273 275 273 270 266 261 258 255 253 254 256 253 249 246 244 240 236 231 226 222 218 216 214 213 211 211 211 212 212 211 210 210 210 211 211 211
179 171 181 203 185 161 182 194 201 264 166 155 150 166 202 197 167 155 162 171 177 179 183 189 198 219 226 225 234 239 247 259 263 269 278 278 276 278 278 285 288 285 286 285 278 271 263 257 258 261 264 267 268 267 265 261 259 257 257 259 256 251 249 247 243 240 235 231 226 222 218 216 214 213 212 211 211 212 212 212 211 210 210 211 212 214
204 194 169 179 192 180 199 210 205 120 168 173 172 178 188 189 179 168 180 189 190 193 198 198 201 212 218 221 232 242 251 259 261 265 274 273 269 271 277 284 285 283 282 281 278 272 261 253 251 252 254 258 261 266 269 266 263 262 262 260 256 253 251 249 245 241 237 232 227 223 219 217 215 214 213 212 213 213 212 213 212 211 211 211 212 214
214 185 123 107 206 245 278 243 204 116 179 186 186 181 186 190 189 181 190 200 204 206 211 210 210 216 218 221 228 236 244 250 254 262 269 266 264 269 275 280 283 283 281 278 274 270 263 255 249 245 247 255 263 272 277 274 270 268 265 260 256 254 252 250 247 243 238 234 229 224 221 218 216 214 213 212 213 213 214 215 215 214 214 214 213 214
236 179 147 122 166 195 246 237 200 188 195 194 194 192 190 194 197 193 195 207 214 217 219 217 217 219 222 227 233 237 240 245 253 263 267 265 266 270 274 278 280 280 278 271 264 260 257 251 245 242 247 260 268 275 277 274 273 272 268 264 260 257 253 250 248 245 240 235 230 225 221 219 217 215 214 212 212 212 213 214 216 217 217 216 215 214
190 171 170 176 166 179 227 243 184 183 197 200 202 204 197 200 204 205 206 212 217 220 219 217 217 219 224 232 238 240 243 250 258 265 267 266 267 270 272 275 275 274 270 263 255 253 250 247 247 251 260 269 274 277 277 275 275 274 272 268 264 259 254 251 248 246 242 236 231 226 222 219 217 216 215 213 213 213 213 214 215 216 218 218 218 217
139 155 175 181 178 210 262 310 106 124 192 211 212 211 207 206 210 213 214 215 215 217 216 215 217 221 227 234 238 242 249 256 261 265 265 264 266 268 268 269 267 262 256 249 246 248 248 249 254 261 268 274 275 277 277 276 275 274 271 267 263 259 256 252 248 246 242 237 231 226 222 219 218 217 216 216 215 214 215 215 215 216 217 217 217 218
136 160 180 155 174 224 243 191 158 154 209 217 213 212 210 209 213 218 220 218 216 216 218 220 222 224 229 234 238 244 251 255 258 260 260 260 262 262 262 261 256 248 242 239 242 246 247 252 257 262 267 270 271 272 273 273 273 273 270 266 262 258 255 252 248 245 241 237 232 227 223 220 219 218 217 217 217 216 215 214 214 215 214 214 216 224
177 177 170 164 192 222 222 194 188 196 221 219 213 212 210 208 212 220 223 222 222 223 227 231 234 235 237 239 242 246 248 249 249 250 249 249 249 250 252 253 249 245 243 242 244 245 246 250 254 257 262 266 268 271 272 272 272 271 268 265 261 257 255 252 249 245 242 238 233 228 224 222 221 219 219 218 218 218 216 214 213 212 212 216 224 235